Preview of NWS' New Version of Forecast
This preview is not operational and should not be used for support decisions.

Regional Weather Roundup (RWR)

Issued by Philadelphia/Mt Holly (PHI)

                            
000
ASUS41 KPHI 172212
RWRPHI

REGIONAL WEATHER ROUNDUP
NATIONAL WEATHER SERVICE MOUNT HOLLY NJ
500 PM EST THU JAN 17 2019

NOTE:  "FAIR" INDICATES FEW OR NO CLOUDS BELOW 12,000 FEET WITH NO
SIGNIFICANT WEATHER AND/OR OBSTRUCTIONS TO VISIBILITY.

 * = STATION DOES NOT REPORT PRECIPITATION (E.G. RAIN, SNOW, ETC.) 
        OR FOG.

NJZ015>026-172300-
SOUTHERN NEW JERSEY
  
CITY           SKY/WX    TMP DP  RH WIND       PRES   REMARKS
POMONA         MOCLDY    32  24  72 NE5       30.30F WCI  27          
WILDWOOD*      FAIR      34  21  59 E3        30.30S                  
MILLVILLE      MOCLDY    32  18  56 E6        30.29S WCI  26          
WRIGHTSTOWN    CLOUDY    30  17  58 E5        30.27F WCI  25          
MOUNT HOLLY    FAIR      31  15  52 SE6       30.30S WCI  25          
TRENTON        FAIR      32  10  40 SE9       30.29F WCI  24          

$$
NJZ001>014-172300-
NORTHERN NEW JERSEY
  
CITY           SKY/WX    TMP DP  RH WIND       PRES   REMARKS
SUSSEX         FAIR      27  11  51 NE5       30.26S WCI  22          
ANDOVER*         N/A     29   1  30 VRB3      30.25S                  
MORRISTOWN     MOCLDY    30  18  59 S5        30.30S WCI  25          
NEWARK         CLOUDY    30  13  49 S8        30.32R WCI  22          
TETERBORO      FAIR      31   5  33 S3        30.31R                  
CALDWELL       FAIR      30   8  39 S6        30.31R WCI  24          
SOMERVILLE     CLOUDY    31  11  43 SE5       30.28S WCI  26          
ALLAIRE*       FAIR      30  20  66 E7        30.31F WCI  23          
TOMS RIVER*    FAIR      30  21  69 CALM      30.31F                  

$$
PAZ043-044-047-054-055-060>062-066>071-172300-
EASTERN PENNSYLVANIA
  
CITY           SKY/WX    TMP DP  RH WIND       PRES   REMARKS
PHILADELPHIA   MOCLDY    31   7  36 SE6       30.30S WCI  25          
NORTH PHILA    FAIR      33   7  33 SE5       30.31F WCI  29          
BLUE BELL*     FAIR      30   5  34 CALM      30.30S                  
DOYLESTOWN     FAIR      30   5  34 CALM      30.27F                  
QUAKERTOWN*    PTCLDY    28   3  34 SE5       30.27F WCI  23          
PERKASIE*      FAIR      28   1  31 SE3       30.27F                  
POTTSTOWN      MOCLDY    30   5  34 CALM      30.29S                  
LANCASTER      CLOUDY    32  20  61 SE6       30.25F WCI  26          
COATESVILLE    CLOUDY    30  16  55 SE6       30.26F WCI  24          
READING        CLOUDY    30  14  51 SE7       30.26F WCI  23          
ALLENTOWN      FAIR      32   3  29 S7        30.27S WCI  26          
MOUNT POCONO   CLOUDY    22   2  42 SE8       30.14F WCI  12          
HAZLETON       CLOUDY   N/A N/A N/A SE3       30.21R                  
LEHIGHTON      MOCLDY    30   5  34 CALM      30.27R                  
WILKES BARRE   CLOUDY    29   4  34 S5        30.20S WCI  24          

$$
DEZALL-MDZ008-012-015-019-020-172300-
DELAWARE AND EASTERN MARYLAND
  
CITY           SKY/WX    TMP DP  RH WIND       PRES   REMARKS
WILMINGTON     CLOUDY    32  16  51 SE3       30.30S                  
DOVER          FAIR      33  21  60 CALM      30.29S                  
GEORGETOWN     FAIR      36  25  64 E6        30.28F WCI  31          
EASTON         PTCLDY    37  27  65 E5        30.30F WCI  34          
ABERDEEN       CLOUDY    32  21  64 S6        30.28  WCI  26          
PATUXENT       CLOUDY    39  30  70 SE9       30.24  WCI  33          
OCEAN CITY     FAIR      38  29  70 E5        30.27F WCI  34          
WALLOPS ISLAND FAIR      38  28  67 E3        30.27F                  
CAMBRIDGE      CLEAR     37  27  65 E6        30.26F WCI  33          
SALISBURY      FAIR      37  28  70 E6        30.27F WCI  32          

$$
PAZ001-021-NYZ056-072-MDZ011-DCZ001-172300-
OTHER NEARBY LOCATIONS
  
CITY           SKY/WX    TMP DP  RH WIND       PRES   REMARKS
HARRISBURG     CLOUDY    31  18  58 E8        30.24F WCI  23          
STATE COLLEGE  LGT SNOW  27  18  69 S3        30.15F                  
WILLIAMSPORT   CLOUDY    29  12  49 SE6       30.21F WCI  23          
BINGHAMTON     FAIR      21   4  47 S5        30.13F WCI  15          
NEW YORK CITY  FAIR      31  11  43 MISG      30.33R                  
BALTIMORE      CLOUDY    34  24  67 E7        30.25F WCI  28          
WASHINGTON DC  CLOUDY    38  25  59 E6        30.26F WCI  33          

$$